Location: Bremen
(53.0793°N, 8.8017°E)
Time: 21:49:06
(UTC+02:00)

Envisat - Pass Details

Date: 04 March 2024
Orbit: 762 x 764 km, 98.3° (Epoch: 13 April)

Event Time Altitude Azimuth Distance (km) Brightness Sun altitude
Rises 04:25:52 0° 13° (NNE) 3,244 6.7 -24.2°
Reaches altitude 10° 04:28:11 10° 11° (N) 2,313 5.9 -23.9°
Maximum altitude 04:33:14 67° 290° (WNW) 830 2.9 -23.2°
Enters shadow 04:33:54 60° 247° (WSW) 876 2.9 -23.1°
